Home > Weather > Limoges > Past weeks

Flag for France Past Weather in Limoges, Limousin, France — Yesterday and Last 2 Weeks

Now
59 °F

Passing clouds.


Feels Like: 57 °F
Forecast: 50 / 71 °F
Wind: 10 mph from Northeast

Location: Limoges Airport

Current Time: May 24, 2016 at 12:02:25 PM

Latest Report: May 24, 2016 at 11:30 AM


Visibility: N/A

Pressure: 30.01 "Hg

Humidity: 55%

Dew Point: 43 °F

Location of LimogesLocation

Past Weather in Limoges — Graph

°F

Limoges Temperature Yesterday

Maximum temperature yesterday: 61 °F (at 6:00 PM)
Minimum temperature yesterday: 45 °F (at 12:30 AM)
Average temperature yesterday: 51 °F

High & Low Weather Summary for the Past Weeks

 TemperatureHumidityPressure
High81 °F (May 21, 5:00 PM)100% (May 10, 9:00 AM)30.24 "Hg (May 10, 9:00 AM)
Low41 °F (May 16, 6:30 AM)34% (May 21, 6:00 PM)29.59 "Hg (May 11, 3:00 PM)
Average54 °F81%29.94 "Hg
* Reported May 9 10:00 AM — May 24 10:30 AM, Limoges, Weather by CustomWeather, © 2016

Note: Actual official high and low records may vary slightly from our data, if they occured in-between our weather recording intervals... More about our weather records

Advertising

Limoges Weather History for the Previous 24 Hours

Scroll right to see more
 ConditionsComfort  
Time TempWeatherWind HumidityBarometerVisibility
10:30 AM
Tue, May 24
57 °FSunny.14 mph63%30.04 "Hg10 mi
10:00 AM55 °FPassing clouds.12 mph67%30.04 "HgN/A
9:30 AM54 °FSunny.8 mph67%30.07 "Hg10 mi
9:00 AM52 °FPassing clouds.7 mph72%30.04 "HgN/A
8:30 AM50 °FSunny.7 mph82%30.07 "Hg10 mi
8:00 AM48 °FSunny.6 mph87%30.04 "Hg10 mi
7:30 AM45 °FSunny.7 mph93%30.07 "Hg10 mi
7:00 AM45 °FClear.5 mph93%30.07 "Hg10 mi
6:30 AM43 °FClear.3 mph93%30.07 "Hg10 mi
6:00 AM43 °FClear.2 mph100%30.09 "Hg10 mi
5:30 AM45 °FClear.5 mph93%30.09 "Hg10 mi
5:00 AM45 °FClear.6 mph93%30.09 "Hg10 mi
4:30 AM46 °FClear.2 mph93%30.09 "Hg10 mi
4:00 AM46 °FClear.3 mph93%30.09 "Hg10 mi
3:30 AM46 °FClear.1 mph87%30.12 "Hg10 mi
3:00 AM46 °FClear.5 mph87%30.12 "Hg10 mi
2:30 AM46 °FClear.7 mph93%30.12 "Hg10 mi
2:00 AM48 °FPassing clouds.7 mph87%30.12 "HgN/A
1:30 AM46 °FPassing clouds.6 mph93%30.15 "HgN/A
1:00 AM48 °FClear.5 mph87%30.15 "Hg10 mi
12:30 AM48 °FPassing clouds.5 mph87%30.15 "HgN/A
12:00 AM50 °FPassing clouds.6 mph82%30.15 "HgN/A
11:30 PM
Mon, May 23
50 °FPassing clouds.3 mph82%30.15 "HgN/A
11:00 PM50 °FPassing clouds.3 mph82%30.15 "HgN/A
10:30 PM52 °FPassing clouds.3 mph77%30.15 "HgN/A
10:00 PM52 °FSunny.6 mph77%30.15 "Hg10 mi
9:30 PM54 °FSunny.2 mph72%30.15 "Hg10 mi
9:00 PM55 °FCool.6 mph72%30.15 "HgN/A
8:30 PM57 °FPassing clouds.7 mph67%30.15 "HgN/A
8:00 PM57 °FPartly sunny.6 mph63%30.15 "HgN/A
7:30 PM57 °FPassing clouds.7 mph55%30.15 "HgN/A
7:00 PM59 °FPassing clouds.9 mph51%30.12 "HgN/A
6:30 PM59 °FPartly sunny.12 mph51%30.12 "HgN/A
6:00 PM61 °FPassing clouds.9 mph48%30.12 "HgN/A
5:30 PM59 °FPassing clouds.10 mph55%30.15 "HgN/A
5:00 PM57 °FPassing clouds.9 mph59%30.15 "HgN/A
4:30 PM59 °FPartly sunny.9 mph55%30.15 "HgN/A
4:00 PM59 °FPassing clouds.12 mph55%30.15 "HgN/A
3:30 PM57 °FBroken clouds.10 mph59%30.15 "HgN/A
3:00 PM57 °FPartly sunny.12 mph59%30.15 "HgN/A
2:30 PM57 °FPartly sunny.12 mph55%30.15 "HgN/A
2:00 PM57 °FBroken clouds.13 mph63%30.15 "HgN/A
1:30 PM54 °FBroken clouds.12 mph67%30.15 "HgN/A
1:00 PM55 °FPartly sunny.12 mph63%30.15 "HgN/A
12:30 PM54 °FBroken clouds.12 mph67%30.15 "HgN/A
12:00 PM54 °FPartly sunny.12 mph67%30.15 "HgN/A
Weather by CustomWeather, © 2016

See weather overviewHow to use our weather pages